Regional Weather Roundup
Issued by NWS

Home | Current Version | Previous Version | Graphics & Text | Print | Product List | Glossary On
Versions: 1 2 3 4 5 6 7 8 9 10 11 12 13 14 15 16 17 18 19 20 21 22 23 24 25 26 27 28 29 30 31 32 33 34 35 36 37 38 39 40 41 42 43 44 45 46 47 48 49
000
ASUS45 KBOU 301607
RWRCO

WEATHER ROUNDUP FOR COLORADO
NATIONAL WEATHER SERVICE DENVER/BOULDER CO
900 AM MST FRI JAN 30 2015

NOTE: "FAIR" INDICATES FEW OR NO CLOUDS BELOW 12000 FEET WITH NO
SIGNIFICANT WEATHER AND/OR OBSTRUCTIONS TO VISIBILITY.

COZ001>005-013-030-031-301700-
...NORTHWEST COLORADO...

CITY           SKY/WX    TMP DP  RH WIND       PRES   REMARKS
CRAIG          PTSUNNY   34  29  82 NE6       30.20S WCI  29
HAYDEN         CLOUDY    32  27  80 SE8       30.19F WCI  25
MEEKER         FOG       30  29  96 CALM      30.18R VSB 1/2
MOUNT WERNER   NOT AVBL
STEAMBOAT SPGS CLOUDY    29  25  83 CALM      30.19F
WALDEN         PTSUNNY   30  25  80 CALM      30.20F
$$

COZ006>008-011-301700-
...WEST CENTRAL VALLEYS...

CITY           SKY/WX    TMP DP  RH WIND       PRES   REMARKS
GRAND JUNCTION CLOUDY    39  33  79 SE7       30.14F
MONTROSE       CLOUDY    39  34  82 CALM      30.16F
EAGLE          PTSUNNY   30  28  93 CALM      30.23F
RIFLE          CLOUDY    33  29  85 CALM      30.17F
DELTA          CLOUDY    40  32  72 CALM      30.15F
NUCLA          DRZL/FOG  37  36  93 CALM      30.18F VSB 1/4
$$

COZ017>023-064>068-301700-
...SOUTHWEST COLORADO...

CITY           SKY/WX    TMP DP  RH WIND       PRES   REMARKS
DURANGO        LGT SNOW  31  30  96 E5        30.22S VSB 1   WCI  26
CORTEZ         LGT RAIN  37  34  89 SE6       30.17R
PAGOSA SPRINGS LGT SNOW  32  32 100 CALM      30.23F
TELLURIDE      CLOUDY    32  30  91 CALM      30.16S
WOLF CREEK PAS NOT AVBL
$$

COZ009-010-012-014-032>034-037-058>063-301700-
...CENTRAL COLORADO...

CITY           SKY/WX    TMP DP  RH WIND       PRES   REMARKS
ASPEN          CLOUDY    29  23  78 CALM      30.18F
BUENA VISTA    CLOUDY    30  22  73 NW5       30.26S WCI  25
COPPER MTN     CLOUDY    28  19  69 NE6       30.25F WCI  22
BERTHOUD PASS  CLOUDY    19  14  79 SE14      30.28F WCI   6
COTTONWOOD PAS CLOUDY    30  25  80 CALM      30.26S
GUNNISON       CLOUDY    28  25  86 NE8       30.24F WCI  20
KREMMLING      CLOUDY    25  21  86 CALM      30.24F
LEADVILLE      CLOUDY    19  17  92 S5        30.23F WCI  12
MONARCH PASS   LGT SNOW  23  21  93 MISG      30.36F
SALIDA         CLOUDY    33  26  77 CALM      30.33F
SUNLIGHT       CLOUDY    30  27  86 CALM        N/A
WILKERSON PASS CLOUDY    23  21  93 CALM      30.29S
$$

COZ069>075-301700-
...SAN LUIS VALLEY/SANGRE DE CRISTO MOUNTAINS...

CITY           SKY/WX    TMP DP  RH WIND       PRES   REMARKS
ALAMOSA        LGT SNOW  29  26  89 SE9       30.25F FOG     WCI  20
LA VETA PASS   LGT SNOW  23  21  93 S7        30.23F WCI  15
SAGUACHE       LGT SNOW  30  28  93 SE5       30.28F VSB 1   WCI  25
$$

COZ035-036-038>040-301700-
...NORTHERN COLORADO FRONT RANGE...

CITY           SKY/WX    TMP DP  RH WIND       PRES   REMARKS
DENVER INTL AP CLOUDY    35  25  66 SW6       30.18F WCI  30
DMNS CITY PARK   N/A     39  25  57 S3        30.19S
AURORA         CLOUDY    36  24  62 W2        30.20S
FRONT RANGE AP NOT AVBL
ERIE MUNI ARPT CLOUDY    35  29  78 CALM      30.19F
BOULDER MUN AP CLOUDY    36  27  69 CALM      30.18F
CENTENNIAL     CLOUDY    37  25  61 CALM      30.19S
BROOMFIELD     NOT AVBL
FORT COLLINS   CLOUDY    30  25  80 CALM      30.21S
LONGMONT       CLOUDY    36  29  75 CALM      30.21S
$$

COZ041-046-047-076>085-087-088-301700-
...PIKES PEAK/PALMER DIVIDE AND SOUTHERN FOOTHILLS...

CITY           SKY/WX    TMP DP  RH WIND       PRES   REMARKS
COLO. SPRINGS  PTSUNNY   33  25  72 CALM      30.23S
A. F. ACADEMY  PTSUNNY   30  23  75 NW2       30.22S
ELLICOTT       MOSUNNY  N/A N/A N/A CALM      30.22S
FALCON         MOSUNNY   32  24  72 S3        30.22S
FORT CARSON    PTSUNNY   31  25  80 NE2       30.22S
LIMON          CLOUDY    33  26  75 SE6       30.23R WCI  28
MONUMENT HILL  PTSUNNY   34  23  64 S8        30.18S WCI  27
TRINIDAD       CLOUDY    38  27  64 W7        30.24F
$$

COZ042>045-048>051-090-091-301700-
...NORTHEAST COLORADO...

CITY           SKY/WX    TMP DP  RH WIND       PRES   REMARKS
GREELEY ARPT   CLOUDY    30  21  69 CALM      30.19S
AKRON          CLOUDY    37  27  67 S8        30.19F
BURLINGTON     CLOUDY    38  26  62 S20       30.25S
WRAY           CLOUDY    39  29  67 SE5       30.25S
STERLING       CLOUDY    34  30  86 CALM      30.20S
HOLYOKE        NOT AVBL
FORT MORGAN    CLOUDY    33  26  74 W5        30.19F WCI  28
$$

COZ086-089-092>099-301700-
...SOUTHEAST COLORADO...

CITY           SKY/WX    TMP DP  RH WIND       PRES   REMARKS
PUEBLO         CLOUDY    35  27  72 CALM      30.23F
LA JUNTA       LGT RAIN  39  34  82 S14       30.28S
LAMAR          LGT RAIN  42  33  70 SW20      30.31R
SPRINGFIELD      N/A     40  28  62 S16       30.31F
$$



USA.gov is the U.S. government's official web portal to all federal, state and local government web resources and services.